Weather History for Oxford, MS

Change the Weather History Date:

Tuesday, December 11, 2012

  Actual Average Record
Temperature  
Mean Temperature 36 °F -  
Max Temperature 46 °F 53 °F 75 °F (1949)
Min Temperature 26 °F 33 °F 12 °F (1978)
Degree Days  
Heating Degree Days 29    
Moisture  
Dew Point 23 °F    
Average Humidity 68    
Maximum Humidity 93    
Minimum Humidity 29    
Precipitation  
Precipitation 0.00 in - - ()
Sea Level Pressure  
Sea Level Pressure 30.18 in    
Wind  
Wind Speed 4 mph (NNE)    
Max Wind Speed 9 mph    
Max Gust Speed -    
Visibility 9 miles    
Events      
Averages and records for this station are not official NWS values.
T = Trace of Precipitation, MM = Missing Value Source: NWS Daily Summary

Daily Weather History Graph

Daily Weather History Graph

Search for Another Location

Airport:

Trip Planner

Search our weather history database for the weather conditions in past years. The results will help you decide how hot, cold, wet, or windy it might be!

Date:

Astronomy

Dec. 11, 2012 Rise Set
Actual Time 6:54 AM CST 4:48 PM CST
Civil Twilight 6:26 AM CST 5:16 PM CST
Nautical Twilight 5:55 AM CST 5:47 PM CST
Astronomical Twilight 5:25 AM CST 6:18 PM CST
Moon 4:52 AM CST (12/11) 3:25 PM CST (12/11)
Length of Visible Light 10h 49m
Length of Day
9h 53m
Waning Crescent, 4% of the Moon is Illuminated
Dec 11
Waning Crescent
Dec 13
New
Dec 19
First Quarter
Dec 28
Full
Jan 4
Last Quarter

Hourly Weather History & Observations

Time (CST) Temp. Windchill Dew Point Humidity Pressure Visibility Wind Dir Wind Speed Gust Speed Precip Events Conditions
12:15 AM 32.0 °F 26.4 °F 23.0 °F 69% 30.09 in 10.0 mi NNE 5.8 mph - N/A   Overcast
12:35 AM 32.0 °F 25.6 °F 24.8 °F 75% 30.09 in 10.0 mi NE 6.9 mph - N/A   Overcast
12:55 AM 32.0 °F 26.4 °F 24.8 °F 75% 30.09 in 10.0 mi NNE 5.8 mph - N/A   Overcast
1:15 AM 32.0 °F 24.2 °F 23.0 °F 69% 30.09 in 10.0 mi North 9.2 mph - N/A   Overcast
1:35 AM 32.0 °F 25.6 °F 23.0 °F 69% 30.09 in 10.0 mi NNE 6.9 mph - N/A   Overcast
1:55 AM 32.0 °F 24.8 °F 23.0 °F 69% 30.09 in 10.0 mi NNE 8.1 mph - N/A   Overcast
2:15 AM 32.0 °F 24.8 °F 23.0 °F 69% 30.09 in 10.0 mi NE 8.1 mph - N/A   Overcast
2:35 AM 32.0 °F 27.5 °F 23.0 °F 69% 30.09 in 10.0 mi NNE 4.6 mph - N/A   Overcast
2:55 AM 32.0 °F - 23.0 °F 69% 30.10 in 10.0 mi Calm Calm - N/A   Overcast
3:15 AM 32.0 °F 26.4 °F 23.0 °F 69% 30.11 in 10.0 mi NE 5.8 mph - N/A   Overcast
3:35 AM 32.0 °F 26.4 °F 23.0 °F 69% 30.11 in 10.0 mi NNE 5.8 mph - N/A   Overcast
3:55 AM 32.0 °F 28.7 °F 23.0 °F 69% 30.11 in 10.0 mi NNE 3.5 mph - N/A   Overcast
4:15 AM 32.0 °F 26.4 °F 23.0 °F 69% 30.11 in 10.0 mi NNE 5.8 mph - N/A   Overcast
4:35 AM 32.0 °F 28.7 °F 23.0 °F 69% 30.12 in 10.0 mi NE 3.5 mph - N/A   Mostly Cloudy
4:55 AM 30.2 °F 26.7 °F 23.0 °F 75% 30.12 in 10.0 mi NNE 3.5 mph - N/A   Mostly Cloudy
5:15 AM 28.4 °F 24.6 °F 23.0 °F 80% 30.12 in 10.0 mi ENE 3.5 mph - N/A   Scattered Clouds
5:35 AM 28.4 °F - 23.0 °F 80% 30.13 in 10.0 mi Calm Calm - N/A   Clear
5:55 AM 28.4 °F - 23.0 °F 80% 30.14 in 9.0 mi Calm Calm - N/A   Clear
6:15 AM 26.6 °F - 24.8 °F 93% 30.14 in 10.0 mi Calm Calm - N/A   Clear
6:35 AM 26.6 °F - 24.8 °F 93% 30.15 in 9.0 mi Calm Calm - N/A   Clear
7:15 AM 26.6 °F - 24.8 °F 93% 30.16 in 7.0 mi Calm Calm - N/A   Clear
7:35 AM 26.6 °F 22.6 °F 24.8 °F 93% 30.17 in 8.0 mi NNE 3.5 mph - N/A   Clear
7:55 AM 28.4 °F - 24.8 °F 86% 30.17 in 7.0 mi Calm Calm - N/A   Clear
8:15 AM 28.4 °F 23.3 °F 24.8 °F 86% 30.18 in 7.0 mi ENE 4.6 mph - N/A   Clear
8:35 AM 32.0 °F 26.4 °F 24.8 °F 75% 30.19 in 8.0 mi ENE 5.8 mph - N/A   Clear
8:55 AM 32.0 °F 25.6 °F 24.8 °F 75% 30.20 in 8.0 mi East 6.9 mph - N/A   Clear
9:15 AM 33.8 °F 26.4 °F 24.8 °F 70% 30.21 in 8.0 mi ENE 9.2 mph - N/A   Clear
9:35 AM 33.8 °F 28.6 °F 24.8 °F 70% 30.21 in 8.0 mi NE 5.8 mph - N/A   Clear
9:55 AM 35.6 °F 30.7 °F 24.8 °F 65% 30.21 in 8.0 mi NE 5.8 mph - N/A   Clear
10:15 AM 35.6 °F 31.7 °F 24.8 °F 65% 30.21 in 8.0 mi North 4.6 mph - N/A   Clear
10:35 AM 37.4 °F 34.9 °F 23.0 °F 56% 30.21 in 8.0 mi NNE 3.5 mph - N/A   Clear
10:55 AM 37.4 °F 34.9 °F 23.0 °F 56% 30.21 in 8.0 mi North 3.5 mph - N/A   Clear
11:15 AM 39.2 °F 35.0 °F 23.0 °F 52% 30.21 in 8.0 mi NNE 5.8 mph - N/A   Clear
11:35 AM 39.2 °F 37.0 °F 23.0 °F 52% 30.20 in 9.0 mi ENE 3.5 mph - N/A   Clear
11:55 AM 41.0 °F 36.4 °F 23.0 °F 49% 30.19 in 9.0 mi NNE 6.9 mph - N/A   Clear
12:15 PM 41.0 °F 36.4 °F 23.0 °F 49% 30.18 in 9.0 mi North 6.9 mph - N/A   Clear
12:35 PM 42.8 °F 39.3 °F 23.0 °F 46% 30.17 in 9.0 mi North 5.8 mph - N/A   Clear
12:55 PM 44.6 °F 40.7 °F 23.0 °F 43% 30.17 in 8.0 mi North 6.9 mph - N/A   Clear
1:15 PM 44.6 °F 39.7 °F 21.2 °F 39% 30.17 in 8.0 mi NNE 9.2 mph - N/A   Clear
1:35 PM 44.6 °F 39.7 °F 19.4 °F 37% 30.16 in 10.0 mi NNE 9.2 mph - N/A   Clear
1:55 PM 44.6 °F 42.2 °F 17.6 °F 34% 30.15 in 8.0 mi NE 4.6 mph - N/A   Clear
2:35 PM 46.4 °F 41.9 °F 17.6 °F 32% 30.15 in 9.0 mi North 9.2 mph - N/A   Clear
2:55 PM 46.4 °F 42.4 °F 15.8 °F 29% 30.16 in 9.0 mi NNE 8.1 mph - N/A   Clear
3:15 PM 44.6 °F 40.2 °F 15.8 °F 31% 30.16 in 9.0 mi North 8.1 mph - N/A   Clear
3:35 PM 44.6 °F 42.2 °F 17.6 °F 34% 30.16 in 9.0 mi NE 4.6 mph - N/A   Clear
3:55 PM 44.6 °F 41.4 °F 17.6 °F 34% 30.16 in 9.0 mi North 5.8 mph - N/A   Clear
4:15 PM 42.8 °F 39.3 °F 17.6 °F 36% 30.16 in 9.0 mi NNE 5.8 mph - N/A   Clear
4:35 PM 41.0 °F 38.0 °F 19.4 °F 42% 30.17 in 9.0 mi North 4.6 mph - N/A   Clear
4:55 PM 41.0 °F 39.0 °F 19.4 °F 42% 30.17 in 9.0 mi North 3.5 mph - N/A   Clear
5:15 PM 39.2 °F - 21.2 °F 49% 30.18 in 10.0 mi Calm Calm - N/A   Clear
5:35 PM 37.4 °F - 23.0 °F 56% 30.18 in 10.0 mi Calm Calm - N/A   Clear
5:55 PM 35.6 °F - 23.0 °F 60% 30.19 in 10.0 mi Calm Calm - N/A   Clear
6:15 PM 33.8 °F - 24.8 °F 70% 30.19 in 10.0 mi Calm Calm - N/A   Clear
6:35 PM 32.0 °F - 26.6 °F 80% 30.20 in 10.0 mi Calm Calm - N/A   Clear
6:55 PM 32.0 °F - 24.8 °F 75% 30.21 in 10.0 mi Calm Calm - N/A   Clear
7:15 PM 30.2 °F - 24.8 °F 80% 30.21 in 10.0 mi Calm Calm - N/A   Clear
7:35 PM 30.2 °F - 24.8 °F 80% 30.22 in 10.0 mi North - - N/A   Clear
7:55 PM 28.4 °F - 24.8 °F 86% 30.23 in 10.0 mi Calm Calm - N/A   Clear
8:15 PM 28.4 °F - 24.8 °F 86% 30.24 in 10.0 mi Calm Calm - N/A   Clear
8:35 PM 28.4 °F - 24.8 °F 86% 30.24 in 10.0 mi Calm Calm - N/A   Clear
8:55 PM 28.4 °F - 24.8 °F 86% 30.24 in 9.0 mi Calm Calm - N/A   Clear
9:15 PM 28.4 °F - 24.8 °F 86% 30.25 in 10.0 mi Calm Calm - N/A   Clear
9:35 PM 26.6 °F - 24.8 °F 93% 30.24 in 10.0 mi Calm Calm - N/A   Clear
9:55 PM 26.6 °F - 24.8 °F 93% 30.25 in 10.0 mi Calm Calm - N/A   Clear
10:15 PM 26.6 °F - 24.8 °F 93% 30.26 in 10.0 mi Calm Calm - N/A   Clear
10:35 PM 26.6 °F - 24.8 °F 93% 30.27 in 8.0 mi Calm Calm - N/A   Clear
10:55 PM 26.6 °F - 24.8 °F 93% 30.27 in 9.0 mi Calm Calm - N/A   Clear
11:15 PM 26.6 °F - 24.8 °F 93% 30.27 in 10.0 mi Calm Calm - N/A   Clear
11:35 PM 26.6 °F - 24.8 °F 93% 30.27 in 10.0 mi Calm Calm - N/A   Clear
11:55 PM 26.6 °F - 24.8 °F 93% 30.27 in 9.0 mi Calm Calm - N/A   Clear